Find Qianfan Xingzuo 04-13

NORAD ID: 62797 Int'l Des: 2025-016 Owner: YUANX Country: CN Constellation: spacesail operational
LEOCIRCULARPOLAR

当前视图

正在加载3D地球...

About Qianfan Xingzuo 04-13

Qianfan Xingzuo 04-13 (NORAD 62797) is a spacesail constellation satellite launched Jan 23, 2025 by YUANX of CN. It operates in LEO, CIRCULAR, POLAR orbit with a mass of 267.00 kg.

关于 Qianfan Xingzuo 04-13

正在加载描述...

即将过境

Passes for default location (London). Set your location on the main map for personalized predictions.

高度历史

Loading altitude history...

两行轨道根数

1 62797U 25016N 26173.80959419 .00000126 00000-0 17573-3 0 9994
2 62797 88.9730 83.1246 0015688 142.9547 217.2690 13.51006954 73193
Epoch: Jun 22, 2026 • Age: 27 hours

当前状态

高度 1076.6 km
速度 7.32 km/s
星下点 71.90°N, 162.68°W
发射日期 Jan 23, 2025
运行时间 1.4 years
类型 internet

技术详情

分类 Payload
质量 267.00 kg
干质量 267.00 kg
总质量 267.00 kg
长度 0.30 m
直径 3.00 m
跨度 10.00 m
形状 Box+pan
制造商 SECM
平台类型 Qianfan
阶段状态 In Orbit
所有者/国家 YUANX/CN

Most Searched